Miscellaneous Local Product
Issued by NWS Hastings, NE

Home | Current Version | Previous Version | Text Only | Print | Product List | Glossary Off
Versions: 1 2 3 4 5 6 7 8 9 10 11 12 13 14 15 16 17 18 19 20 21 22 23 24 25 26 27 28 29 30 31 32 33 34 35 36 37 38 39 40 41 42 43 44 45 46 47 48 49 50

246
AXUS43 KGID 050502
MISGRI

GID CWA HOURLY WEATHER ROUNDUP
NATIONAL WEATHER SERVICE HASTINGS NE
1100 PM CST THU FEB 04 2016

NOTE: "FAIR" INDICATES FEW OR NO CLOUDS BELOW 12,000 FEET WITH NO
SIGNIFICANT WEATHER AND/OR OBSTRUCTIONS TO VISIBILITY.

...SOUTH CENTRAL NEBRASKA...

CITY           SKY/WX    TMP DP  RH WIND       PRES   REMARKS
GRAND ISLAND   CLOUDY    13   8  81 SW5       30.30S WCI   5
HASTINGS       CLOUDY    13  10  88 W7        30.29R WCI   3
ORD            CLOUDY    18  13  80 CALM      30.25S
YORK           CLOUDY    12  10  92 W6        30.32S WCI   3
AURORA         CLOUDY    13  11  94 SW5       30.30R WCI   5
LEXINGTON      CLOUDY    20  15  82 S6        30.25S WCI  12
HOLDREGE       CLOUDY    15  11  83 S5        30.27S WCI   8
HEBRON         PTCLDY    13  11  92 CALM      30.34S

...NEBRASKA PANHANDLE...

CITY           SKY/WX    TMP DP  RH WIND       PRES   REMARKS
CHADRON        CLOUDY    31  24  75 SW10      30.13S WCI  22
ALLIANCE       LGT SNOW  28  24  85 W18       30.13S FOG     WCI  15
SCOTTSBLUFF    CLOUDY    30  22  72 W13       30.16S WCI  20
SIDNEY         FLURRIES  26  22  84 W10       30.19R WCI  16

...WESTERN AND NORTH CENTRAL NEBRASKA...

CITY           SKY/WX    TMP DP  RH WIND       PRES   REMARKS
VALENTINE      CLOUDY    25  18  74 SW5       30.14S WCI  19
AINSWORTH      PTCLDY    22  17  81 S8        30.15F WCI  13
ONEILL         CLOUDY    18  12  77 S8        30.23S WCI   7
BROKEN BOW     CLOUDY    18  14  84 SE5       30.21S WCI  11
IMPERIAL       CLOUDY    25  14  63 W9        30.23S WCI  15
NORTH PLATTE   CLOUDY    21  16  81 CALM      30.22R
MCCOOK         CLOUDY    20  14  77 W6        30.25S WCI  12

...EASTERN NEBRASKA...

CITY           SKY/WX    TMP DP  RH WIND       PRES   REMARKS
NORFOLK        CLOUDY    10   7  87 CALM      30.29S
SO SIOUX CITY  CLOUDY    11   7  84 E5        30.33S WCI   3
TEKAMAH        FOG        7   4  87 SE3       30.35R VSB 3/4
COLUMBUS       CLOUDY     9  -2  61 CALM      30.31S
ALBION         CLOUDY     9   5  85 CALM      30.28S
OMAHA EPPLEY   CLOUDY    18  16  92 CALM      30.35R
MILLARD        CLOUDY    19  16  91 CALM      30.35R FOG
LINCOLN        CLOUDY    14  11  87 CALM      30.36R
NEBRASKA CITY  CLOUDY    21  16  82 W6        30.34S WCI  13
BEATRICE       CLOUDY    16  14  90 CALM      30.34R
FALLS CITY     CLEAR     22  18  85 NW5       30.35S WCI  16

...NORTHERN KANSAS...

CITY           SKY/WX    TMP DP  RH WIND       PRES   REMARKS
GOODLAND       CLOUDY    23  12  62 SW7       30.22S WCI  15
HILL CITY      CLOUDY    17  12  80 CALM      30.29S
NORTON         CLEAR     16   9  73 SW7       30.26S WCI   6
PHILLIPSBURG   CLOUDY    16  12  86 CALM      30.31S
SMITH CENTER   CLEAR     10   9  92 CALM      30.32R
BELOIT         CLEAR     19  18  93 CALM      30.33S
HAYS           CLOUDY    16   3  57 W3        30.29F
RUSSELL        CLOUDY    19  16  88 CALM      30.29F
CONCORDIA      CLOUDY    21  15  78 CALM      30.32F
SALINA         CLOUDY    27  18  69 NW3       30.35R
TOPEKA         CLOUDY    27  18  69 NW3       30.36R



USA.gov is the U.S. government's official web portal to all federal, state and local government web resources and services.